Location: Frankfurt+am+Main
(50.1100°N, 8.4815°E)
Time: 04:43:23
(UTC+01:00)

ISS - Pass Details

Date: 11 January 2018
Orbit: 402 x 407 km, 51.6° (Epoch: 18 January)

Event Time Altitude Azimuth Distance (km) Brightness Sun altitude
Exits shadow 05:41:18 32° 101° (E) 717 -2.0 -24.9°
Drops below altitude 10° 05:43:13 10° 104° (ESE) 1,466 0.0 -24.6°
Sets 05:45:18 0° 105° (ESE) 2,326 1.4 -24.2°
